Theta_e
322 322 322 322 322 322 322 322 322 322 322 322 322 322 322 322 321 322 322 321 321 321 321 322 323 323 323 323 324 324 323 319 320 323 322 321 337 347 350 353 350 354 369 358 344 345 340 340 340 346 345 345 342 339 347 346 347 339 328 320 316 317 321 324 323 326 329 326 331 332 337 334 330 336 341 345 340 344 343 342 345 351 342 349 332 335 337 336
322 322 322 322 322 322 322 322 322 321 321 321 321 321 321 321 321 321 321 321 321 321 321 322 322 323 323 323 324 325 321 319 320 323 321 334 348 358 355 355 354 355 365 341 338 341 342 340 339 342 341 335 345 338 345 338 348 331 325 320 315 321 325 332 333 331 328 328 332 333 337 334 332 338 339 336 335 338 337 339 345 340 336 330 331 334 334 333
322 322 322 322 322 321 321 321 321 321 321 321 321 321 321 321 321 321 320 320 320 320 321 322 322 322 323 324 324 325 320 320 323 322 322 346 350 360 360 360 356 365 346 338 340 342 342 344 346 343 338 333 338 336 341 339 343 338 323 319 320 328 330 337 337 334 340 335 332 333 336 337 336 340 340 336 334 338 332 332 334 336 327 324 328 331 331 331
323 322 322 321 321 321 321 321 321 321 321 320 320 320 320 320 320 320 320 320 320 321 321 322 322 322 323 324 324 322 319 321 321 323 329 352 350 354 360 363 363 367 347 341 343 343 345 348 344 341 338 332 333 341 332 337 333 336 326 320 323 330 328 335 338 338 338 338 335 335 337 334 337 343 340 337 331 332 333 339 336 335 335 324 326 328 329 329
322 322 321 321 321 320 320 320 320 320 320 320 320 320 320 320 320 320 320 320 320 321 321 322 322 323 324 324 324 321 318 311 317 327 334 356 351 353 359 364 368 363 347 342 343 342 341 340 340 338 334 325 330 334 331 337 339 335 327 329 330 333 331 336 338 340 339 339 335 336 331 331 340 340 339 336 326 326 332 339 344 344 345 335 326 326 328 327
321 321 321 321 320 320 320 320 320 320 320 319 319 320 320 319 319 319 319 320 320 321 321 322 322 323 324 324 321 317 317 302 320 327 363 360 354 355 361 365 368 357 346 340 338 340 339 339 338 335 327 325 325 325 327 335 340 321 327 331 333 335 332 340 340 337 339 336 333 332 336 338 336 337 338 337 332 334 341 343 346 349 351 350 348 346 325 325
321 321 321 320 320 320 320 319 319 319 319 319 319 319 319 319 319 319 319 319 320 320 321 322 323 324 324 323 320 320 314 311 320 331 358 361 357 358 364 368 368 348 343 338 337 336 338 337 336 332 329 326 323 326 328 333 338 325 320 331 332 338 333 340 339 338 338 335 333 338 339 334 336 329 338 336 344 345 340 344 348 351 349 351 349 347 348 336
321 320 320 320 320 320 319 319 319 318 319 319 319 318 318 318 319 319 319 319 320 320 321 322 323 324 323 320 322 315 315 316 324 351 360 360 357 358 365 359 351 343 340 338 341 338 339 335 333 336 327 322 320 326 327 330 334 324 325 331 333 338 336 341 340 337 338 337 338 339 333 334 336 333 337 336 341 341 341 345 348 350 348 347 347 347 349 348
321 321 321 321 320 319 319 318 318 318 318 318 318 318 318 318 319 319 319 319 319 321 321 322 323 324 324 319 322 311 311 324 331 344 355 352 348 358 346 335 345 334 337 339 340 340 338 335 336 334 312 314 318 322 325 324 320 326 327 332 334 336 337 340 338 337 338 340 341 334 332 336 338 340 335 339 340 341 343 346 346 345 343 346 347 349 352 348
320 320 320 319 319 318 318 318 318 318 318 318 318 318 318 318 318 319 319 319 320 321 321 323 324 324 320 320 320 305 318 335 337 347 350 343 350 343 340 338 339 337 337 339 340 339 337 336 334 335 323 317 320 314 323 324 318 328 331 333 333 335 336 340 335 336 338 339 339 332 332 335 341 336 326 339 340 344 343 342 343 342 341 345 347 349 351 351
320 320 319 318 318 318 318 318 318 318 318 317 318 318 318 318 318 318 318 319 320 321 322 323 324 323 318 320 311 305 327 329 336 341 339 337 335 328 330 335 340 339 339 339 338 340 340 339 338 325 320 315 317 315 316 321 327 330 332 333 334 335 337 338 336 335 336 336 337 334 332 337 339 337 329 336 341 344 340 340 341 340 340 343 345 345 349 350
319 319 319 318 317 317 318 318 318 318 318 317 317 317 317 317 317 318 318 319 320 321 322 323 324 321 318 318 310 306 327 328 332 331 332 333 326 327 333 336 339 341 339 335 337 339 339 338 328 322 313 320 312 316 315 323 329 330 332 325 330 333 332 335 333 335 337 333 339 338 331 329 330 329 335 338 342 342 340 339 339 339 340 341 341 343 344 345
319 319 319 318 317 317 317 318 318 318 317 317 316 316 317 317 318 318 318 319 321 322 323 323 323 321 319 305 315 322 322 325 326 327 329 330 329 330 333 336 336 338 339 337 335 338 338 334 327 321 322 319 316 310 316 319 326 329 330 327 326 326 324 332 337 336 332 334 341 333 314 318 326 333 336 339 341 341 338 337 338 338 339 339 339 340 342 345
319 318 318 317 317 316 317 317 317 317 317 316 316 316 317 317 318 319 320 320 322 322 323 325 322 320 318 310 321 328 326 324 327 324 327 330 328 328 330 332 334 334 336 335 337 338 337 334 327 324 326 320 316 322 317 316 328 320 326 324 318 318 317 329 334 334 327 337 339 330 313 316 326 332 336 338 341 337 334 335 336 337 338 338 339 339 339 342
318 318 317 317 317 317 317 317 317 317 316 315 315 316 316 317 318 319 320 321 322 323 324 324 322 319 316 317 324 327 351 325 322 321 326 326 326 326 328 330 330 331 332 334 334 336 334 329 326 321 316 323 320 315 311 310 316 323 316 312 317 315 316 326 337 332 324 333 337 324 314 318 325 330 335 339 338 336 333 335 336 336 337 338 339 339 339 340
318 318 317 316 317 317 316 316 316 316 316 315 315 315 316 317 319 320 321 321 323 323 323 316 320 319 312 306 314 340 326 317 320 324 324 328 326 324 328 329 330 331 331 330 334 334 332 328 321 320 320 320 316 310 307 304 308 320 315 311 313 313 315 323 331 334 331 335 336 324 314 320 322 329 334 338 336 335 332 333 335 336 337 338 337 337 338 340
317 317 317 316 316 316 316 315 315 315 315 315 315 316 316 317 320 322 323 324 322 324 320 317 324 323 305 317 324 317 317 321 325 325 324 326 326 326 328 328 328 328 331 331 332 330 328 324 324 320 320 314 313 310 303 301 300 308 311 310 315 312 315 315 325 332 331 332 325 329 320 320 323 328 332 335 337 335 331 333 334 335 335 336 336 336 337 337
317 317 317 316 316 316 316 315 315 315 315 315 315 316 316 321 322 323 322 323 323 322 319 322 318 312 308 317 310 313 320 320 320 324 326 328 328 328 329 328 328 328 328 326 325 323 324 316 325 311 310 311 310 305 302 298 301 300 307 311 314 316 320 318 317 324 330 331 325 326 319 319 323 327 330 333 336 335 332 333 334 333 334 334 335 335 337 336
317 316 316 316 316 316 316 315 315 315 315 315 316 319 321 321 320 315 313 320 316 308 302 312 307 296 298 305 312 314 319 319 323 319 320 326 328 328 329 329 327 322 314 313 311 318 321 315 314 307 305 305 306 307 306 308 309 304 312 314 316 312 315 313 322 328 329 325 323 325 316 318 322 325 329 332 333 332 332 334 334 334 334 333 334 334 335 335
317 316 316 315 316 316 316 315 315 315 315 312 310 315 319 319 315 316 318 318 313 311 309 317 313 311 311 311 310 316 323 322 315 316 317 322 329 325 324 325 321 318 313 308 310 312 316 308 305 306 307 309 311 310 310 311 311 307 316 318 316 315 318 320 320 326 330 323 322 325 318 320 322 324 328 331 331 330 331 331 334 334 334 333 333 334 335 335
317 316 316 315 315 316 316 314 315 314 314 311 309 312 308 310 306 304 308 312 315 316 311 313 316 312 311 314 315 316 314 313 315 314 316 325 326 324 319 318 314 309 308 312 311 314 315 305 306 310 312 312 312 312 310 307 306 305 315 316 314 316 312 318 318 324 327 320 317 320 318 320 322 325 328 331 330 329 330 331 333 334 335 334 335 335 336 337
316 316 316 315 315 316 316 314 314 314 313 310 310 314 314 315 316 315 310 304 311 316 316 316 317 315 318 317 318 317 314 310 311 313 318 324 322 317 313 315 310 307 309 311 309 306 305 304 309 312 313 313 313 311 308 305 304 302 304 313 311 312 315 317 318 323 324 320 314 316 317 318 322 325 327 328 329 330 333 334 335 334 335 335 336 337 338 339
317 316 316 315 315 315 315 315 314 312 308 309 312 314 311 313 315 316 313 306 306 315 316 316 315 315 317 322 322 320 311 308 307 312 315 323 316 317 313 311 308 308 310 311 305 304 302 306 311 314 314 312 310 306 305 306 305 302 298 305 306 312 306 302 311 318 321 315 311 316 316 316 321 324 326 329 330 331 334 336 336 336 335 336 337 338 338 338
317 317 316 316 316 316 315 314 313 310 307 310 311 310 316 316 316 315 311 306 307 313 315 317 317 317 317 316 320 319 313 310 311 311 318 319 312 314 311 310 308 307 306 308 307 304 305 310 314 312 309 307 305 305 304 301 298 300 301 299 305 309 308 308 307 313 318 312 317 314 310 311 317 319 322 327 332 332 333 335 335 336 338 338 339 340 340 339
316 316 316 316 315 316 314 312 308 308 312 310 310 314 317 317 317 317 308 306 307 308 316 315 318 318 319 328 324 314 312 314 313 315 317 318 311 310 309 311 307 302 306 308 307 305 306 311 314 311 309 306 305 303 303 302 298 297 301 303 309 310 307 309 309 309 305 304 313 314 301 304 310 318 322 322 326 328 331 331 332 333 334 335 338 339 340 341
316 316 316 316 315 314 313 311 311 314 311 311 316 321 320 318 318 315 310 303 298 307 312 305 317 311 324 315 317 315 313 308 315 316 318 318 319 312 310 305 307 302 304 304 304 304 306 311 311 309 306 305 305 301 303 304 298 298 299 306 304 310 309 308 308 305 296 299 309 316 304 299 308 311 318 321 324 325 327 329 331 332 332 334 337 338 338 340
315 315 315 316 315 313 310 314 312 312 309 313 318 316 317 318 323 318 308 299 295 307 303 313 311 311 320 314 315 314 300 303 315 316 316 321 314 315 305 303 306 308 310 309 304 299 308 309 308 307 307 305 302 300 303 303 299 298 304 306 305 305 304 307 308 304 299 309 310 311 307 303 300 308 317 322 323 323 324 326 329 331 331 333 336 337 337 338
314 314 315 315 314 312 309 310 310 309 309 312 317 319 320 320 321 317 305 292 291 309 305 307 313 319 317 313 315 310 308 311 307 311 316 318 316 311 308 303 302 302 306 305 295 303 307 304 306 305 305 302 299 301 304 306 301 300 305 306 305 305 303 304 307 301 300 303 297 304 311 303 302 308 317 321 319 319 321 323 326 329 331 332 334 335 336 337
314 313 313 313 312 312 311 308 309 309 314 316 318 320 322 321 318 307 300 291 306 306 316 308 319 313 312 313 311 312 311 311 304 309 314 316 316 309 303 306 306 305 305 304 298 303 307 307 306 307 303 300 302 304 305 306 301 305 306 309 307 310 306 303 298 298 302 296 295 301 308 301 302 309 310 317 318 317 320 322 324 327 329 332 333 334 335 335
313 312 313 312 310 310 308 310 307 313 316 318 319 321 323 317 310 301 295 289 311 300 310 310 309 305 309 306 307 310 308 310 311 311 313 310 312 312 310 311 306 304 302 305 303 304 307 315 317 310 305 303 304 306 308 306 305 309 307 307 301 300 301 301 299 300 296 295 293 303 308 308 299 306 310 311 315 319 321 320 322 325 328 331 333 333 333 332
312 312 311 311 306 313 315 310 314 316 317 319 322 322 316 310 304 294 291 296 310 310 310 306 306 310 306 305 303 308 308 309 309 309 306 312 307 309 307 305 308 302 300 301 302 306 307 308 307 308 313 311 309 307 309 309 309 307 302 300 296 297 300 298 297 299 295 289 297 302 310 311 300 305 311 316 319 322 321 320 321 323 327 329 330 331 332 333
311 310 310 309 310 313 311 314 318 320 321 323 321 314 308 300 301 295 294 315 299 302 302 300 305 306 306 308 306 305 305 308 307 307 303 302 300 300 299 296 298 294 294 296 297 301 302 303 305 308 323 309 309 306 302 305 303 304 301 299 296 290 295 290 296 293 291 291 297 304 311 306 302 309 315 317 317 318 322 323 323 325 327 327 329 330 330 334
310 309 310 310 310 309 311 318 319 319 321 321 316 309 302 296 291 296 299 304 300 306 303 309 304 306 307 305 304 306 308 302 306 305 306 304 300 300 301 302 303 300 294 297 298 298 298 303 305 307 309 312 305 300 296 300 299 300 300 297 293 292 291 287 290 291 292 298 303 303 309 301 304 309 316 317 318 320 324 325 327 327 327 327 328 328 331 334
308 309 307 310 310 312 316 320 320 321 320 320 310 306 302 295 295 317 302 303 303 309 308 307 307 306 307 303 305 306 300 306 304 303 304 300 299 296 299 302 303 302 302 299 296 294 293 294 301 305 301 307 306 305 301 298 300 299 299 299 295 293 292 289 288 287 290 291 297 303 301 300 302 304 316 319 320 323 326 327 327 328 328 328 329 327 331 332
308 308 309 312 312 313 314 317 318 319 318 311 306 300 295 293 298 299 301 304 306 308 306 309 305 303 302 304 306 306 305 301 305 303 300 299 295 296 297 299 303 303 303 297 300 300 299 297 302 308 306 307 306 308 306 304 301 302 304 300 297 297 296 291 292 291 291 292 291 301 302 306 306 314 320 321 322 324 327 327 328 327 328 328 326 326 328 330
309 310 314 314 315 319 314 316 317 318 312 307 302 297 295 299 296 304 303 311 309 307 308 309 305 300 298 300 305 304 307 302 304 302 300 300 300 298 302 302 302 304 301 297 299 296 299 297 304 307 308 307 307 309 311 307 297 301 300 296 299 301 301 296 300 303 297 290 295 306 305 311 311 315 317 320 321 322 325 325 326 326 327 325 324 325 327 327
308 312 312 319 320 322 317 318 319 317 311 305 299 295 301 304 308 307 313 308 308 309 307 301 299 299 298 298 300 303 303 305 303 302 297 302 299 301 302 304 307 306 307 304 300 303 296 297 304 305 303 306 308 308 309 308 305 302 297 299 302 304 302 297 292 291 288 289 293 304 301 302 303 301 312 318 319 320 321 322 324 324 325 323 323 324 325 326
307 310 315 318 323 321 320 320 319 314 308 303 298 312 311 304 311 309 310 308 309 309 304 302 303 305 298 298 299 302 303 300 298 302 298 301 296 305 304 304 308 308 308 309 302 302 304 296 300 305 306 309 312 311 307 308 309 304 301 305 301 294 293 293 294 289 287 288 289 299 303 304 302 305 312 313 316 317 318 319 320 321 323 321 322 323 325 326
307 311 311 324 325 322 321 322 317 311 304 300 298 299 307 307 309 307 309 309 308 306 302 304 303 304 300 300 301 303 302 297 301 300 299 299 296 304 305 307 305 309 309 308 303 302 304 297 298 305 307 308 306 303 299 301 304 309 307 305 304 298 295 295 293 293 290 288 290 296 299 297 307 306 314 314 317 318 318 318 319 320 320 321 322 324 325 326
310 310 308 326 324 324 323 318 312 307 302 297 298 301 306 304 307 309 309 308 306 304 303 304 308 303 305 301 302 299 302 302 302 301 301 300 300 304 305 308 306 307 308 309 305 308 301 301 296 300 307 307 301 302 298 298 299 299 298 298 298 300 301 297 298 296 293 290 286 290 294 298 304 312 314 315 318 319 320 319 319 320 318 323 325 326 326 327
311 309 312 325 325 324 320 313 305 303 301 302 304 304 306 305 308 309 311 312 309 312 307 307 306 304 305 306 305 303 302 300 303 300 301 300 301 298 306 307 308 306 307 307 305 304 303 303 295 298 298 296 300 304 304 304 302 300 296 298 299 297 296 294 292 296 297 290 289 291 292 300 308 321 316 315 318 319 319 319 320 323 321 325 327 328 327 327
310 309 311 323 323 320 313 304 306 306 303 302 300 305 304 316 307 307 308 310 309 307 312 309 309 308 308 306 305 306 303 300 302 301 302 300 303 302 304 309 309 309 305 301 302 305 303 302 297 297 299 302 305 308 309 308 308 305 303 301 301 299 295 290 288 291 296 298 300 299 297 300 311 318 317 318 318 318 319 324 325 325 325 327 328 328 328 327
302 300 313 316 318 318 309 304 307 306 302 303 309 308 309 308 307 308 306 308 306 309 308 308 310 307 309 309 308 306 305 302 303 301 304 303 304 306 306 307 309 310 305 303 306 304 337 299 297 300 303 306 306 308 309 310 306 305 305 305 304 299 299 296 292 294 296 297 292 292 295 300 311 320 318 317 318 318 323 327 326 327 327 328 328 328 328 328
303 304 309 319 320 316 307 300 300 301 303 306 307 306 309 307 306 305 305 307 306 307 306 307 308 310 308 311 308 306 309 303 305 304 302 305 304 308 310 308 311 309 308 306 303 308 302 302 298 295 292 293 298 302 304 308 306 304 304 304 307 303 304 302 302 299 293 296 296 290 288 300 312 322 318 320 323 323 325 326 328 326 327 328 329 329 329 330
304 309 309 313 319 314 305 305 303 302 305 305 306 306 308 307 308 307 306 306 308 307 308 306 309 308 308 309 308 308 310 307 305 306 307 308 309 313 312 312 315 314 322 320 334 309 303 305 297 292 290 290 290 290 294 297 300 303 306 306 305 304 304 302 300 298 292 299 300 292 294 300 312 318 316 318 320 321 323 326 329 329 328 329 329 329 329 329
306 303 313 314 314 312 309 311 310 306 304 305 304 306 309 308 312 314 313 311 311 311 309 308 309 310 308 307 306 307 308 311 306 308 310 306 308 309 313 316 320 323 331 340 327 316 306 307 303 296 292 290 293 297 302 307 302 300 302 304 304 305 305 303 297 294 292 294 298 297 305 307 311 313 314 315 318 317 320 325 326 327 329 329 329 329 329 328
309 306 307 306 311 312 308 311 310 310 305 310 302 309 308 310 311 311 314 307 312 309 309 308 309 306 306 306 306 306 307 307 308 313 310 307 310 309 314 314 317 331 350 331 326 308 301 299 305 303 302 300 302 304 306 307 303 303 302 302 303 304 305 302 300 297 298 294 290 302 309 309 309 312 314 315 317 318 320 324 325 326 328 328 328 329 337 328
302 310 310 311 303 297 305 307 311 310 313 313 309 312 309 309 309 306 312 313 313 313 307 307 308 308 307 307 307 303 305 307 307 309 310 309 308 310 307 310 309 325 320 310 317 306 301 298 303 305 303 304 304 304 305 304 304 303 303 301 301 302 304 303 303 303 301 298 292 300 309 309 310 312 315 317 319 320 321 323 325 327 326 323 324 327 328 326
315 312 311 315 306 308 308 309 312 311 310 311 310 312 309 309 308 310 310 310 312 310 310 304 306 307 308 309 309 306 307 301 303 312 313 309 308 306 304 307 310 309 308 308 308 311 301 300 304 304 304 303 303 303 304 303 302 302 302 302 301 302 302 304 305 304 303 303 299 307 307 309 310 313 317 319 321 322 322 323 321 320 320 321 322 322 323 323
307 306 306 313 311 309 310 311 311 309 305 311 306 309 311 310 308 311 313 312 307 309 312 306 306 309 309 308 307 305 307 308 307 305 314 312 309 307 305 306 305 307 306 307 309 308 302 302 316 303 299 302 303 304 304 303 301 300 302 302 301 301 301 303 305 305 308 307 309 309 308 308 313 316 318 321 320 321 320 320 319 318 321 321 319 319 319 320
307 311 313 308 305 308 313 311 309 307 304 306 306 310 312 311 309 312 312 315 312 309 311 309 311 310 310 309 307 307 309 311 309 309 312 310 306 309 307 309 306 304 307 307 307 308 306 302 307 301 296 298 302 304 302 303 301 301 300 303 306 305 302 304 305 309 305 306 308 308 306 306 311 315 317 316 316 317 317 318 318 319 322 322 320 319 320 320
310 314 315 311 303 313 308 311 310 307 301 307 311 311 310 311 312 313 309 315 316 316 315 314 312 310 308 307 307 309 311 310 312 312 311 313 313 311 312 311 307 305 306 306 311 303 304 303 302 299 295 297 302 303 302 301 300 297 297 302 309 307 307 308 309 310 310 308 304 303 304 311 314 317 314 314 315 316 316 317 318 319 321 322 320 320 321 321
Wind_Speed
17 17 16 16 16 15 15 15 15 15 15 15 15 15 15 14 14 14 14 14 13 14 15 15 15 15 15 15 16 15 15 7 6 2 3 10 7 7 12 8 12 16 13 5 4 4 7 7 8 5 4 4 3 2 3 2 2 1 0 2 2 2 3 5 6 7 3 6 5 6 6 4 5 1 2 2 3 2 2 4 4 0 3 5 10 16 17 15
17 17 17 17 16 16 15 15 15 15 15 15 15 15 14 14 14 14 14 14 14 14 15 15 15 15 15 14 15 15 13 4 4 4 13 6 6 8 12 12 11 15 11 5 8 7 3 5 10 5 5 4 3 1 5 1 3 3 1 1 4 4 1 4 2 4 7 3 8 7 6 6 5 5 1 2 2 1 4 2 4 2 4 14 15 17 17 17
18 18 17 17 17 16 15 15 15 15 15 15 15 15 14 14 14 14 14 14 14 14 15 15 15 15 14 15 14 13 9 3 2 4 10 17 13 8 11 10 12 13 14 8 9 6 7 4 2 2 2 2 2 2 2 1 3 3 1 1 2 3 3 3 4 5 3 8 9 9 6 2 6 3 2 3 4 3 5 4 1 1 8 15 17 17 16 17
18 18 18 17 17 16 16 16 15 15 15 15 15 14 14 14 14 14 14 14 14 14 14 15 15 14 15 15 13 8 2 2 1 3 4 10 16 14 12 11 12 14 10 6 1 5 6 5 7 5 2 3 2 2 3 3 2 2 2 3 3 4 6 3 4 3 8 9 9 7 5 6 5 3 2 7 6 0 2 2 3 5 7 12 17 17 16 16
20 19 18 18 17 17 16 16 16 15 15 15 15 14 14 14 14 13 14 14 14 14 14 15 15 15 16 15 13 3 1 2 2 2 3 8 15 15 12 10 13 10 10 1 2 5 5 7 8 5 2 3 3 1 4 3 5 2 6 4 5 4 4 5 4 5 7 6 9 7 9 6 3 1 2 6 7 6 7 4 3 3 3 8 12 17 15 15
21 19 19 18 18 17 17 16 16 16 16 15 15 14 14 14 14 13 13 14 13 13 14 14 14 15 16 17 8 2 0 2 2 2 5 10 15 14 12 11 12 7 3 4 3 2 3 4 3 2 1 2 5 7 4 7 7 2 3 4 7 5 6 4 6 6 7 6 9 9 5 7 7 2 4 5 3 3 4 5 4 3 3 5 5 4 14 16
22 20 19 19 19 18 17 17 16 16 15 15 15 14 14 14 13 13 13 13 13 13 13 14 13 15 15 15 1 0 1 5 3 3 9 9 14 13 11 5 6 3 3 4 4 4 3 4 3 7 4 6 4 9 6 4 9 2 5 5 6 5 8 8 7 7 6 10 9 5 10 8 7 4 4 6 2 5 8 6 4 2 4 4 5 6 4 5
22 22 20 19 19 19 18 17 17 16 15 15 15 14 14 14 13 13 13 13 12 13 13 13 13 13 12 6 0 1 1 6 9 2 9 7 8 9 7 5 6 4 5 6 0 4 4 6 8 7 7 9 4 10 6 4 7 4 2 6 4 3 5 7 7 7 4 4 6 7 9 7 10 6 8 5 3 7 9 6 6 3 3 4 5 4 3 3
21 20 20 19 19 18 18 18 17 16 16 15 15 14 14 13 13 13 13 12 12 12 12 12 13 11 7 1 0 2 4 6 7 9 9 9 7 6 8 5 5 6 2 3 8 8 2 6 9 9 3 2 1 1 8 8 4 7 6 6 5 3 6 7 6 6 6 2 4 6 6 5 5 7 5 4 5 5 9 7 5 3 3 2 3 3 1 2
24 23 22 21 20 19 19 18 17 17 16 16 14 13 14 14 13 13 12 12 12 11 12 11 11 11 3 1 0 1 3 2 6 9 10 9 7 7 7 4 9 4 3 6 5 8 8 9 8 8 9 2 1 1 5 7 5 7 8 8 9 5 7 5 9 6 6 4 6 8 5 5 5 6 1 4 8 9 9 7 5 5 4 3 2 1 1 1
24 24 23 22 20 20 19 18 18 17 17 16 14 12 13 13 13 12 12 11 11 11 10 10 10 10 0 1 1 5 2 5 2 7 9 8 9 7 10 7 8 6 8 7 9 9 12 12 12 5 1 0 5 6 5 7 5 9 9 9 4 6 4 6 4 6 4 2 10 8 7 4 6 1 7 6 9 11 11 7 6 5 5 4 3 2 1 0
25 25 24 23 22 20 20 19 18 17 17 15 15 15 14 13 13 12 12 11 11 10 9 9 9 3 2 1 2 7 4 3 6 8 9 10 8 11 10 9 7 9 9 8 9 10 11 13 7 3 3 2 3 3 4 8 6 8 13 9 2 4 4 4 7 6 6 3 8 5 5 3 5 4 7 9 9 9 11 9 8 7 6 5 4 2 0 1
25 26 24 23 22 21 20 19 18 17 16 16 15 15 14 13 13 12 11 11 9 9 9 9 6 2 1 1 10 8 3 2 9 7 5 7 5 3 5 7 9 9 10 9 8 11 10 8 5 9 3 2 4 1 2 2 6 6 2 8 5 4 2 6 3 5 5 2 9 6 4 6 4 5 10 11 10 9 8 8 8 6 6 5 5 3 3 1
26 25 25 24 23 22 20 19 18 17 17 16 16 16 15 14 14 13 11 11 12 11 9 6 2 2 0 5 6 3 5 3 2 5 9 7 6 6 7 9 10 10 9 10 13 11 12 9 6 6 2 3 4 1 3 2 8 8 2 3 5 7 4 6 5 7 5 2 9 1 5 3 3 6 8 10 12 12 10 9 8 7 7 5 4 4 5 4
26 27 26 25 25 24 21 19 19 18 17 17 17 17 16 15 14 14 13 11 11 8 5 5 2 0 0 8 7 11 11 5 8 9 8 9 9 4 10 11 12 13 11 11 8 7 7 5 4 3 4 1 2 4 2 3 2 2 5 2 1 5 5 6 3 8 8 1 4 8 3 5 6 8 6 10 11 12 10 8 9 8 7 6 5 6 6 6
26 25 24 26 25 23 21 19 19 18 18 17 17 17 17 16 14 12 11 10 10 7 3 0 2 1 1 6 3 8 3 6 12 14 9 12 11 11 12 11 11 10 10 9 9 8 6 4 4 4 6 4 1 1 4 3 1 4 7 3 6 1 4 2 6 8 7 3 2 3 5 2 2 6 8 11 13 12 10 7 8 9 9 8 6 6 5 4
27 23 21 24 27 24 22 20 18 18 18 18 19 16 14 14 13 10 9 8 3 2 4 1 2 2 0 3 5 3 3 5 7 10 9 9 12 11 6 7 8 11 11 12 10 7 5 3 1 2 1 4 4 1 3 4 2 6 1 4 4 8 4 2 1 5 5 7 7 2 8 9 5 9 10 10 12 11 10 9 9 9 8 7 7 5 4 4
24 22 22 21 27 25 23 21 18 17 18 19 18 16 12 11 9 10 4 1 2 3 4 3 2 1 8 3 1 5 1 3 6 10 12 11 11 10 8 6 4 9 10 8 6 8 3 3 0 7 3 3 0 3 3 8 6 7 5 5 3 2 10 7 9 8 9 5 8 5 4 7 5 9 11 12 11 11 10 9 10 9 8 7 6 5 5 4
26 26 23 21 23 27 23 20 18 18 18 21 20 17 12 6 2 1 1 2 1 1 1 1 3 2 3 5 3 6 3 6 4 5 7 9 6 7 7 5 8 7 3 2 3 2 0 3 3 3 7 5 7 9 10 14 11 9 15 11 9 7 7 5 8 6 16 10 7 8 10 8 8 10 9 9 9 10 9 7 6 7 7 6 6 7 6 6
27 27 23 21 20 26 23 20 17 16 17 12 9 2 2 1 0 0 1 1 5 7 4 7 8 4 9 11 6 2 2 1 5 7 5 5 3 5 7 4 4 3 3 5 3 3 3 3 6 9 11 12 10 10 13 15 15 6 11 12 10 11 8 6 5 7 13 8 8 12 5 9 12 13 13 11 8 6 7 9 8 8 8 8 7 8 8 8
26 23 21 21 19 24 24 20 15 14 14 6 7 1 1 2 2 2 2 8 8 10 10 6 14 12 11 4 4 1 0 3 6 6 11 4 4 5 4 3 1 3 4 3 4 3 1 5 9 14 15 13 15 14 8 10 7 6 14 11 9 9 9 10 10 8 11 9 8 7 9 11 13 12 12 9 11 11 12 11 11 10 11 10 10 10 9 10
25 23 22 21 19 20 22 19 15 13 11 3 3 2 2 3 2 1 1 6 5 13 12 15 8 10 10 11 14 6 5 4 7 6 5 7 4 7 2 5 4 7 2 2 5 4 3 8 15 12 11 13 14 15 11 3 1 2 10 9 9 9 5 3 3 8 9 5 6 9 12 11 11 11 10 12 14 12 13 15 14 12 11 10 10 9 9 7
23 24 22 21 20 19 20 18 13 13 5 0 0 2 4 3 5 5 1 3 9 4 8 7 5 11 13 9 8 5 5 6 9 7 4 6 3 10 4 6 4 3 3 1 5 5 7 9 19 18 12 14 12 11 5 2 2 1 7 9 7 9 6 3 6 7 7 5 6 10 12 6 5 4 9 10 12 10 12 13 12 12 13 12 11 10 9 8
21 23 23 23 23 20 20 18 16 5 3 4 3 7 7 6 5 5 2 2 5 6 7 8 9 5 10 7 3 8 8 5 5 8 5 6 6 4 3 5 5 3 7 8 8 8 12 16 10 6 7 6 6 1 1 1 2 1 3 7 9 9 11 11 9 7 7 0 6 8 5 3 5 7 5 6 3 5 8 10 8 9 11 11 8 7 9 10
22 23 24 25 25 22 23 17 2 3 3 3 6 10 12 12 5 1 2 4 2 6 3 4 5 4 9 3 4 3 7 3 8 4 4 8 4 3 5 2 2 6 8 10 7 8 13 17 13 10 10 4 1 2 3 3 2 2 1 9 15 16 12 2 8 10 5 2 7 13 3 3 4 7 12 7 3 7 8 11 10 11 8 6 9 10 7 8
23 23 24 23 23 23 22 2 1 5 6 6 8 7 5 7 3 6 2 1 5 5 0 4 5 6 4 4 4 3 4 4 8 5 7 9 7 6 1 3 4 10 9 4 5 5 10 14 8 10 5 3 1 1 2 2 0 2 4 3 8 16 10 8 13 10 6 7 10 11 11 3 3 5 9 6 8 11 6 10 11 10 9 9 10 10 10 10
23 24 23 21 20 19 9 1 4 8 4 4 1 7 9 8 5 5 1 2 3 4 5 1 5 1 4 4 6 7 3 7 5 3 7 5 7 4 3 7 2 4 2 1 1 5 5 10 8 5 1 0 1 3 3 7 5 2 3 3 4 10 9 11 11 10 6 1 5 2 2 9 6 7 7 10 12 11 9 9 9 10 10 11 10 11 11 10
26 25 22 20 16 7 5 6 8 2 7 6 8 10 11 8 5 2 1 0 2 3 2 1 3 1 0 6 8 6 6 2 5 5 8 8 5 3 5 5 5 4 2 1 7 8 0 5 7 3 2 1 3 3 5 3 4 5 4 5 3 6 7 12 12 7 2 9 7 3 2 5 1 3 4 10 11 8 12 11 10 10 11 11 11 11 12 11
27 24 20 17 16 13 5 4 2 6 4 5 10 10 8 9 2 3 2 1 4 1 3 4 5 3 1 3 7 7 5 2 3 4 5 6 9 5 6 10 3 5 5 3 7 10 3 3 8 4 2 3 4 2 3 5 4 4 6 1 1 0 1 6 9 8 1 4 7 9 7 5 2 2 5 5 10 14 14 13 12 12 12 11 11 10 10 9
26 23 19 17 10 1 2 3 8 10 8 10 11 12 8 3 3 2 2 2 1 1 1 1 1 6 2 8 5 7 8 1 2 1 6 8 7 1 1 4 4 4 5 2 6 9 11 10 7 5 3 6 4 3 4 3 3 0 2 1 3 4 2 2 4 2 3 1 7 14 9 8 4 5 11 12 14 18 12 6 6 8 7 9 10 10 9 8
27 24 18 11 4 2 1 4 11 11 10 8 10 7 2 4 1 1 1 6 2 0 0 2 3 4 7 11 8 5 5 3 0 6 2 1 2 0 1 1 2 1 2 5 8 9 7 5 4 2 6 2 2 2 2 1 2 2 1 2 4 3 7 2 2 4 1 4 8 10 13 14 6 6 8 14 4 11 16 14 13 12 11 10 8 8 8 8
27 27 20 9 7 2 6 6 2 1 4 8 4 4 3 1 3 3 6 4 0 2 3 4 3 4 12 9 5 5 6 1 3 6 8 5 4 5 3 5 4 4 5 6 9 5 5 7 4 4 4 7 1 1 7 4 6 2 2 6 2 3 2 2 0 3 4 6 6 7 13 2 4 7 18 18 6 11 11 13 14 13 12 11 10 8 7 8
28 26 27 11 9 6 10 11 4 7 8 7 3 3 2 3 2 7 6 2 1 1 2 1 5 6 9 6 6 4 5 4 4 3 9 5 7 7 5 8 6 6 3 3 2 2 8 5 4 4 2 2 6 3 2 2 2 3 0 2 2 0 0 2 3 1 2 7 3 5 4 1 2 3 3 13 10 11 11 9 10 13 13 12 10 7 7 7
28 25 13 5 10 12 5 1 3 2 2 3 4 5 3 2 6 5 7 2 6 6 4 2 2 2 11 9 8 5 4 3 7 3 6 3 4 4 5 6 7 4 3 2 2 2 1 6 7 3 2 4 5 7 10 5 2 2 2 5 6 4 2 2 1 2 2 5 4 3 3 1 1 3 5 11 6 8 9 8 8 9 10 9 7 8 9 7
31 20 10 4 5 10 12 6 2 3 0 3 5 3 4 6 3 2 1 1 2 5 4 4 4 4 4 5 3 5 5 1 7 5 7 7 6 4 6 7 5 5 2 1 3 1 6 7 9 8 7 5 6 5 5 4 4 1 1 6 5 2 5 2 5 5 3 1 5 5 1 1 1 5 3 8 9 8 8 8 8 7 6 7 6 7 9 8
19 7 4 4 4 5 9 8 5 2 3 4 5 2 8 6 3 2 2 1 3 4 12 16 6 6 4 5 3 5 7 3 7 4 3 7 8 8 7 4 6 10 6 7 2 1 2 3 6 8 5 9 8 4 0 5 2 4 3 1 4 5 6 1 1 1 2 6 1 0 2 1 2 7 7 7 9 8 7 7 8 8 7 7 7 6 9 8
9 10 4 4 5 4 8 10 8 5 5 6 4 6 4 4 5 5 4 5 8 9 6 6 2 5 5 6 5 6 4 2 4 5 4 2 2 5 4 6 8 9 11 9 5 4 3 8 6 5 5 3 3 4 4 4 7 3 3 8 3 3 4 3 2 2 3 2 1 0 7 3 2 1 2 4 9 6 7 8 9 7 7 8 7 7 7 7
10 6 7 6 5 10 10 11 11 3 4 5 4 4 2 5 0 4 5 10 11 4 6 5 4 8 5 6 6 6 4 7 4 5 4 7 4 7 8 3 8 10 12 13 7 3 8 7 4 3 5 3 2 5 2 2 1 5 5 4 2 2 3 3 3 1 1 0 1 1 1 1 3 4 3 5 10 8 7 7 8 8 8 7 5 6 5 5
4 3 7 1 9 12 12 11 5 6 4 2 2 2 4 5 5 9 7 8 6 7 7 6 4 2 4 6 4 6 7 7 7 7 3 3 4 6 12 8 6 13 11 12 6 3 1 2 4 2 3 2 2 2 3 3 6 2 3 4 0 4 2 1 2 3 3 1 3 1 1 2 2 5 11 11 11 11 9 8 10 11 10 6 6 8 8 7
4 3 4 2 10 11 11 7 5 3 3 3 4 4 2 4 6 10 10 6 5 3 4 8 3 2 1 4 2 2 4 8 11 8 6 4 7 2 7 9 4 4 11 12 8 6 4 2 2 3 2 5 1 1 5 5 2 4 6 1 3 1 2 3 2 1 1 2 2 4 1 3 5 4 6 9 10 11 12 11 9 7 5 6 6 8 7 7
3 1 3 5 9 11 8 4 4 2 2 3 2 3 3 4 3 7 10 10 8 6 8 7 5 3 3 1 4 3 3 5 8 7 6 4 8 2 7 8 8 5 5 9 6 4 2 1 4 3 3 2 2 4 4 6 9 6 5 3 4 3 2 1 3 3 2 4 1 4 3 4 8 1 8 8 7 8 7 8 7 4 7 6 5 5 8 7
4 3 1 4 9 10 8 4 1 2 1 3 4 3 3 6 7 14 12 8 9 6 6 8 6 4 1 2 3 3 2 3 7 7 4 8 7 8 5 15 11 6 7 7 9 4 5 3 5 2 2 1 4 8 3 3 1 6 8 5 5 5 6 4 1 3 2 1 4 3 5 5 5 2 3 10 10 8 8 8 6 5 8 7 6 6 5 6
3 5 6 6 6 2 5 1 1 1 3 4 2 7 9 9 8 8 8 9 7 4 5 4 1 4 2 2 2 3 3 3 9 9 7 7 8 16 4 10 8 3 5 3 6 1 4 2 1 2 6 6 5 5 4 4 4 4 3 2 1 2 5 6 6 5 3 1 3 1 1 3 4 2 1 8 10 8 6 9 10 6 7 7 7 6 6 5
3 5 7 5 7 5 1 3 2 3 4 6 7 10 8 7 6 8 6 9 3 3 5 4 5 3 3 2 2 4 1 2 6 9 3 3 2 2 1 10 9 3 2 3 4 2 2 1 5 2 2 4 6 7 9 8 6 2 1 3 1 2 6 3 6 2 3 2 4 5 2 2 4 1 1 6 9 9 8 6 11 10 5 8 7 5 5 5
5 5 6 7 3 5 5 5 4 3 3 6 7 10 9 5 8 15 14 12 7 7 4 3 2 3 4 4 6 6 2 5 3 3 5 2 1 4 8 4 9 5 4 4 8 5 7 1 2 1 2 2 2 1 2 3 1 4 1 2 3 4 3 5 1 2 2 1 2 2 2 6 4 1 4 6 9 8 6 8 5 10 9 7 5 5 4 4
4 3 5 2 1 3 3 3 2 2 6 5 7 9 7 4 5 6 7 8 8 7 6 4 5 1 3 4 6 4 2 1 4 1 0 2 2 4 1 9 8 4 7 13 7 4 3 2 5 5 5 4 4 5 6 2 1 2 6 5 5 3 7 8 4 3 1 2 1 3 6 4 3 5 4 4 8 10 8 7 9 6 5 5 5 5 5 6
1 1 3 5 6 2 3 3 3 3 4 4 4 4 9 8 6 7 5 4 2 4 5 5 2 3 3 5 4 5 2 5 3 0 1 3 2 3 3 9 7 7 8 4 4 5 3 4 2 7 4 5 6 3 3 1 0 0 3 6 4 1 1 2 2 3 5 6 2 3 6 11 11 7 5 6 6 7 7 8 6 7 8 9 8 5 6 6
1 2 3 1 1 3 5 5 7 9 11 8 5 5 6 9 8 5 7 4 8 4 4 3 4 2 4 4 3 3 4 3 5 2 3 3 3 1 4 4 4 3 5 2 3 4 4 3 2 1 0 1 1 1 2 3 0 0 1 3 6 5 4 4 2 3 5 1 4 3 6 8 7 5 9 11 10 9 11 11 12 11 7 4 5 6 7 8
1 2 2 6 1 1 2 9 11 8 9 7 3 4 6 6 8 5 4 8 7 4 3 6 10 8 9 9 2 1 1 4 7 2 1 3 4 2 3 2 3 2 6 1 3 1 4 0 1 2 1 3 4 5 6 6 4 5 4 5 6 6 6 3 2 5 5 1 5 10 8 5 3 5 9 9 5 10 9 6 4 5 7 7 7 7 8 8
4 3 4 5 3 5 5 4 5 6 7 5 3 5 7 8 8 9 8 5 7 11 5 4 8 10 11 11 7 4 2 3 3 5 1 2 1 2 2 2 2 2 3 1 1 2 4 1 3 2 2 1 3 5 5 6 7 6 8 6 3 2 4 2 2 1 6 12 10 12 9 2 2 4 7 5 5 6 7 6 8 7 6 7 9 8 8 8
4 4 3 4 6 4 4 4 6 7 5 5 2 5 6 7 8 9 8 3 4 5 8 12 11 10 4 6 6 6 6 3 9 9 11 8 6 4 5 1 3 4 2 2 2 1 3 1 1 2 2 2 2 3 4 6 5 5 5 6 3 5 5 4 3 2 6 7 9 11 8 4 5 3 4 5 6 8 8 8 6 6 7 8 8 8 8 9
4 3 5 2 1 3 5 5 6 5 2 3 6 10 9 10 8 7 7 4 3 4 7 10 12 5 5 7 7 7 9 6 3 7 3 7 9 5 6 6 7 6 2 2 0 4 2 4 2 2 2 1 4 2 3 4 7 8 5 3 1 4 6 3 3 7 5 9 9 8 7 8 9 4 8 5 6 7 7 6 5 5 6 8 9 9 9 8
Wind_Direction
342 339 335 334 330 326 323 321 318 317 318 317 317 318 319 320 322 323 323 324 322 321 319 320 321 321 320 317 323 326 330 329 326 203 183 243 209 186 185 215 186 193 183 174 230 219 201 203 224 225 209 138 229 162 220 133 134 66 4 125 70 181 149 199 165 191 131 132 183 184 202 144 126 199 286 313 51 50 30 42 320 102 155 147 141 148 151 147
342 339 338 333 330 327 324 321 319 317 317 315 316 316 318 319 322 323 321 323 324 319 320 320 320 320 314 319 324 329 331 301 292 277 229 236 227 220 204 216 192 182 131 199 206 212 223 229 228 191 149 191 145 201 144 261 124 145 198 92 170 183 211 152 157 125 125 193 157 179 179 164 144 146 217 74 27 105 74 4 342 91 87 129 141 151 155 150
341 340 338 334 332 328 325 322 319 317 316 315 313 315 316 317 322 321 321 322 321 322 319 319 320 317 313 320 322 332 337 302 261 269 255 228 238 226 209 199 182 160 169 186 204 206 213 238 261 217 200 175 206 149 176 234 118 233 120 246 247 189 144 152 142 158 177 127 142 153 168 156 150 141 168 117 148 104 133 133 12 65 128 142 149 154 157 157
343 340 338 335 332 329 325 322 319 319 315 314 313 314 315 318 319 319 319 320 321 320 319 319 317 317 317 316 323 326 280 294 216 240 249 186 202 219 222 192 174 174 187 237 221 214 237 250 273 276 222 210 209 132 177 231 130 213 116 177 212 165 117 220 146 145 124 136 138 139 138 130 173 156 142 138 110 176 246 246 165 170 133 150 150 155 159 163
344 341 338 336 333 329 327 322 321 319 316 312 313 312 315 316 317 318 318 320 320 320 319 318 317 314 318 314 317 322 253 51 229 241 246 184 184 205 214 193 174 178 189 177 322 274 282 285 285 281 187 207 154 104 234 193 194 128 207 184 161 159 100 182 157 145 132 133 125 138 140 173 143 62 199 163 145 193 196 208 240 165 152 135 153 157 160 166
346 342 339 336 333 330 326 324 321 319 315 312 311 313 314 315 315 316 316 317 319 319 319 317 317 321 320 314 298 203 34 95 261 247 132 176 171 193 204 190 179 166 165 243 232 298 290 260 241 321 314 160 177 179 256 180 178 198 251 151 163 178 136 171 145 164 137 136 136 153 152 110 163 175 208 186 194 214 182 180 187 166 100 104 92 133 168 166
347 344 339 337 333 329 328 325 321 317 314 311 312 313 312 313 314 314 315 317 316 317 317 318 320 323 328 315 164 212 98 264 305 253 141 172 173 181 190 172 124 150 194 228 230 233 229 269 221 229 240 254 221 202 218 169 187 119 211 166 191 153 144 159 157 156 160 143 163 161 135 142 164 164 202 203 236 179 168 165 153 96 84 83 87 78 88 181
346 344 341 337 333 330 328 326 321 316 314 313 312 311 312 311 313 313 315 315 315 316 317 319 321 324 341 337 115 2 77 248 235 131 153 168 164 176 129 110 153 166 193 217 195 238 265 256 264 268 247 230 226 175 182 159 182 211 210 175 184 130 149 149 139 156 163 170 140 150 148 175 179 167 151 226 176 151 146 140 108 88 72 75 90 81 102 87
346 343 341 338 334 332 329 324 321 316 315 314 309 309 308 311 311 313 312 313 313 314 317 318 322 320 330 279 50 2 269 236 184 162 144 162 166 144 148 146 195 178 187 206 231 234 224 261 248 239 247 225 185 219 176 152 236 205 207 160 146 165 147 136 133 155 171 147 167 135 179 183 192 144 153 181 148 139 131 105 114 110 96 94 89 86 110 98
346 345 342 340 336 332 329 325 321 319 316 313 311 304 307 311 310 309 310 309 311 313 314 317 321 328 325 164 11 56 262 86 109 145 154 159 150 155 195 178 164 193 206 236 239 235 217 237 230 261 249 238 72 137 142 179 220 170 149 146 157 169 130 141 147 184 180 177 179 160 177 193 190 157 81 159 146 126 121 129 139 139 156 150 104 142 48 67
347 346 344 340 337 333 329 326 323 319 316 313 310 307 309 309 308 305 306 306 309 308 310 315 323 331 52 281 107 228 228 90 122 143 159 155 151 166 202 206 174 188 212 251 241 229 240 252 263 280 227 211 334 320 165 204 133 139 122 94 120 144 121 137 131 175 165 215 187 160 182 164 191 119 175 166 154 138 133 141 152 160 171 158 182 226 214 28
347 346 345 341 337 333 330 327 323 320 316 313 312 312 309 306 303 304 301 302 300 301 303 305 323 296 261 84 169 232 221 176 158 158 170 162 173 199 207 209 190 199 192 230 242 247 241 247 267 353 276 342 340 3 351 56 110 128 126 105 118 105 93 161 159 192 186 193 178 144 81 114 183 201 188 160 149 140 140 151 158 169 171 179 176 185 263 224
347 346 345 343 339 335 331 327 323 320 317 315 312 308 306 302 301 295 294 295 293 296 300 308 313 260 313 335 226 234 315 96 170 166 165 184 187 235 241 230 229 223 218 223 249 256 259 272 303 308 277 339 293 153 289 20 111 103 44 126 111 103 149 207 165 171 186 197 164 136 121 219 217 173 169 154 145 137 137 154 163 168 174 185 181 181 191 188
347 346 346 343 340 336 332 328 324 321 318 315 310 306 304 299 292 288 285 282 287 288 290 302 311 297 151 247 277 194 216 188 183 187 190 176 172 227 232 245 239 240 236 235 251 262 274 278 270 258 248 277 290 67 358 33 142 158 122 35 140 117 210 211 181 181 160 165 186 90 137 227 228 172 169 153 148 148 158 166 166 170 175 177 185 182 194 208
346 346 346 345 341 337 334 329 325 321 319 315 310 305 299 294 288 283 280 280 269 263 286 296 226 306 30 269 263 272 203 168 174 213 195 167 192 232 232 236 244 241 238 237 247 252 250 270 322 324 293 216 280 5 331 88 84 115 92 263 7 120 242 204 229 165 168 226 152 89 73 198 193 183 174 153 155 154 162 171 167 172 175 176 182 186 197 218
345 343 343 344 342 338 335 331 325 323 319 315 310 302 294 285 280 276 272 261 263 266 264 251 176 212 50 294 259 314 86 163 203 201 210 183 184 207 220 221 236 249 252 259 249 263 267 300 275 236 281 315 270 227 315 42 22 202 154 200 175 125 202 121 237 194 175 113 247 135 167 108 272 208 174 165 161 163 164 168 165 171 176 178 191 197 197 208
344 341 341 343 344 340 336 332 328 323 321 315 309 296 285 275 271 266 265 252 289 206 197 58 110 199 26 234 295 318 217 197 175 196 203 214 193 210 224 228 236 245 247 253 259 279 267 272 274 324 266 255 274 33 353 299 186 219 192 136 205 164 167 225 214 201 165 158 188 150 142 207 166 180 180 179 167 168 168 170 170 173 180 181 187 200 196 207
343 341 340 340 343 341 338 334 329 327 322 315 304 291 285 277 280 299 275 189 201 214 240 261 229 329 281 325 226 225 150 214 154 184 199 213 201 210 223 236 243 241 248 262 260 242 219 271 173 248 316 305 158 112 162 242 208 178 174 112 170 233 176 184 163 208 144 194 176 179 185 190 182 170 183 187 174 168 176 174 175 182 183 187 189 201 203 214
343 341 339 338 341 342 338 335 331 329 326 317 301 279 266 267 319 179 112 166 129 53 358 216 130 158 171 210 313 313 213 197 181 132 206 214 218 219 224 238 272 288 282 252 286 211 272 245 13 357 277 224 221 189 200 240 232 176 184 168 160 154 208 233 213 151 163 160 184 186 188 180 174 183 187 185 181 170 183 173 172 186 188 190 196 202 200 217
341 339 337 336 336 341 339 336 330 332 335 331 349 354 123 56 360 30 19 274 219 217 225 179 213 272 310 285 257 236 322 107 167 216 225 223 195 210 237 229 266 273 208 228 288 257 167 219 220 240 244 257 251 207 211 232 243 175 164 150 168 173 208 232 210 186 164 138 195 194 194 172 180 186 185 180 173 169 170 183 182 184 187 194 200 204 204 209
337 336 334 334 334 339 338 336 330 334 336 331 310 321 20 119 20 315 273 227 221 231 240 232 192 215 233 277 287 337 81 260 206 199 218 199 199 131 233 176 215 276 254 251 238 281 90 241 252 230 238 243 255 263 251 243 239 106 156 148 154 180 195 212 198 175 171 157 200 184 177 187 186 188 185 172 168 181 180 186 188 186 184 192 195 200 204 209
334 333 333 332 331 335 336 334 330 327 328 298 338 290 272 231 185 119 55 311 276 222 222 234 223 250 257 255 261 261 312 264 219 218 231 171 189 169 277 197 193 234 288 308 345 340 297 241 255 256 246 240 242 256 244 199 262 93 139 151 149 209 222 234 207 156 182 142 201 168 177 193 188 185 184 177 181 187 186 183 187 178 180 186 191 191 192 191
330 332 331 331 330 330 333 324 322 325 314 122 157 280 249 245 24 3 304 232 272 229 206 217 234 237 260 253 251 166 207 227 205 221 207 182 135 198 158 197 224 230 257 259 231 260 281 260 247 250 243 255 245 243 237 284 317 241 108 128 166 204 144 232 238 168 185 170 183 173 176 196 188 175 190 189 181 186 192 188 182 180 177 182 189 182 181 190
326 329 329 330 329 326 324 324 306 296 220 217 243 226 246 287 304 1 10 259 294 286 204 210 195 222 237 227 207 170 203 212 177 210 209 164 169 166 173 184 210 225 235 225 226 218 238 258 274 303 269 222 235 285 133 132 238 300 142 138 172 197 206 175 202 165 175 74 137 107 68 96 177 159 200 217 234 187 186 187 182 190 187 184 178 175 180 185
327 327 329 329 330 322 322 314 334 221 199 187 242 249 254 266 264 178 64 325 318 277 197 209 188 221 239 151 266 241 195 177 198 176 189 173 162 106 215 175 149 238 232 237 240 249 260 260 259 257 258 278 190 261 234 141 336 324 202 164 178 190 193 200 116 131 156 150 180 149 87 190 230 194 186 186 155 201 191 176 189 188 188 168 172 186 191 192
326 327 329 328 326 329 306 314 333 338 307 260 247 267 270 292 244 155 103 77 298 265 197 245 137 247 144 227 142 196 147 216 198 188 166 195 161 165 124 240 163 235 239 252 236 223 242 261 255 250 222 228 218 184 252 120 213 38 278 180 182 187 170 162 147 128 165 168 214 180 143 189 198 187 196 183 184 196 198 187 188 185 181 181 182 183 189 192
326 326 327 328 328 339 355 353 349 299 301 289 54 320 322 320 311 143 73 349 320 234 170 241 149 266 173 182 165 99 113 251 204 172 175 166 183 149 159 229 260 241 211 184 305 268 236 256 264 277 257 141 27 319 265 124 130 219 239 151 151 142 152 172 154 169 193 360 155 192 114 147 190 220 192 178 181 191 197 202 197 190 186 186 186 185 190 193
326 326 325 324 324 336 224 310 332 290 238 272 328 319 311 307 294 76 74 68 269 226 142 230 220 345 321 173 146 175 201 159 133 219 180 181 161 140 191 220 196 223 272 44 252 255 280 311 293 287 11 334 208 211 253 165 144 211 240 196 153 161 155 149 168 185 186 137 178 196 131 78 223 219 154 171 173 204 206 201 204 197 193 189 186 188 191 193
323 322 322 320 318 300 225 211 282 250 244 312 316 309 317 308 42 99 132 124 249 103 281 113 277 122 253 138 171 201 233 132 174 211 153 166 187 133 203 231 213 266 267 186 243 292 277 202 246 161 138 253 238 235 251 149 119 253 212 87 100 62 191 143 167 153 200 100 185 196 182 125 226 216 122 204 182 198 207 203 201 199 191 189 188 190 189 191
319 319 322 322 318 121 107 215 231 243 305 305 301 302 304 9 41 34 34 264 253 263 220 221 163 187 164 160 213 204 212 197 179 62 154 168 216 46 225 164 189 230 275 265 239 252 265 274 249 289 239 205 206 218 208 180 190 207 131 37 15 35 360 1 68 92 68 239 244 190 184 136 179 218 185 167 203 198 187 194 201 202 197 195 188 185 184 181
318 316 319 320 290 267 226 263 249 244 249 270 284 290 34 38 107 103 223 231 300 310 21 142 185 119 153 173 200 217 214 208 248 145 135 169 171 76 2 303 140 344 310 301 280 269 274 292 319 244 207 204 168 328 300 169 174 134 73 88 40 338 14 29 342 43 141 271 263 175 176 153 144 238 236 223 225 181 171 183 185 191 190 191 187 186 185 176
317 315 312 302 222 246 192 229 192 10 316 307 329 49 66 76 3 166 213 354 119 235 174 201 254 167 178 187 178 179 188 154 177 165 157 175 170 176 223 199 166 206 277 253 267 342 312 274 240 254 207 163 200 3 304 346 1 57 69 40 69 259 35 313 293 245 199 220 250 140 161 109 246 204 206 198 195 183 185 175 178 179 182 184 185 178 180 173
317 314 309 278 207 209 242 256 343 328 319 337 41 55 73 115 221 240 266 324 246 4 337 178 203 178 170 156 213 208 190 198 200 221 162 175 151 218 226 189 180 154 206 250 234 356 278 271 284 262 301 202 119 157 285 359 348 63 111 118 75 349 89 201 253 199 303 303 282 107 117 93 266 290 170 185 197 175 175 176 166 168 175 176 175 167 171 171
314 314 310 187 190 207 214 192 243 323 356 14 86 47 69 121 236 222 237 264 282 309 298 210 243 146 164 181 199 165 189 201 168 200 167 173 160 198 255 254 189 190 177 314 299 193 332 342 292 161 244 220 154 180 176 175 146 205 187 141 173 148 160 218 182 160 203 216 290 335 94 251 83 242 290 181 141 142 164 154 164 166 163 162 162 160 166 169
312 298 262 255 229 234 223 212 288 307 28 84 66 94 156 233 259 229 287 269 250 265 293 331 207 181 203 210 212 189 157 218 197 155 179 141 215 184 192 227 214 182 136 156 262 114 213 223 250 208 196 163 179 206 160 110 54 275 148 77 70 226 139 139 203 149 215 270 15 356 111 232 156 287 356 115 125 137 137 146 147 150 148 155 155 151 168 172
312 315 246 239 210 244 161 182 186 257 110 84 92 139 216 198 216 143 219 352 301 340 321 313 204 180 199 213 237 215 192 137 202 147 215 189 192 196 206 191 200 190 169 176 215 263 355 280 250 237 150 177 192 155 217 123 138 249 54 311 223 190 115 95 352 321 67 52 340 190 52 356 321 10 13 101 114 134 135 138 150 157 161 158 164 163 167 170
332 326 340 217 221 136 140 148 157 156 82 105 118 226 219 278 234 294 297 330 301 311 314 342 282 173 181 204 212 204 217 132 207 172 228 189 292 225 207 225 192 190 189 152 240 213 211 255 304 125 185 247 213 155 182 157 150 89 115 225 278 112 129 131 200 332 49 118 218 109 150 204 113 220 306 111 126 136 139 155 163 161 162 172 174 175 169 165
319 302 256 259 207 125 134 149 142 98 83 97 198 232 236 260 31 300 317 315 307 334 320 302 269 217 194 178 221 202 161 158 227 192 234 174 257 210 196 214 211 205 191 185 179 244 190 268 300 247 150 211 324 159 332 288 81 166 203 193 97 304 328 319 83 342 35 289 153 4 335 179 144 178 140 175 148 157 162 158 154 166 179 183 173 177 167 151
264 327 327 299 118 135 144 153 110 90 70 115 265 273 256 245 276 266 274 276 274 292 295 260 249 242 155 208 214 204 154 184 184 206 182 222 208 216 196 192 227 214 196 171 187 239 56 150 294 317 137 195 27 73 215 293 333 28 62 14 321 107 165 49 209 181 122 250 72 296 11 220 219 217 184 177 179 165 163 164 172 177 180 171 168 163 158 151
340 354 281 77 134 132 148 132 78 55 83 178 211 231 269 294 279 277 271 270 281 244 232 277 252 301 322 214 175 235 216 169 173 205 202 191 207 255 204 208 217 202 192 171 194 189 266 139 227 283 316 89 285 123 188 168 151 13 41 339 360 16 208 114 19 77 153 171 146 155 280 269 263 207 195 189 181 175 168 176 182 186 161 161 153 148 144 139
285 164 286 121 149 140 123 63 70 117 170 258 217 246 262 254 282 271 272 264 276 244 244 260 273 256 200 298 289 198 193 186 189 197 196 211 188 236 221 198 217 227 144 179 183 150 186 144 166 298 19 2 248 228 186 176 153 147 146 170 161 82 34 111 256 327 70 91 172 108 227 267 267 196 176 178 197 177 181 169 176 170 149 147 143 137 135 126
10 355 58 145 162 145 111 98 251 186 164 223 228 193 243 243 256 263 272 270 246 264 234 252 243 219 220 185 199 258 162 196 211 205 206 191 219 205 236 197 211 180 153 179 185 207 160 150 101 108 178 212 250 290 224 200 132 139 130 193 192 140 108 97 111 262 21 335 86 140 131 261 244 252 220 188 174 170 164 151 146 142 140 138 141 142 141 136
17 246 272 293 254 190 76 87 268 178 222 234 238 266 263 271 266 277 288 279 283 258 274 259 279 339 248 214 218 225 189 230 199 209 204 208 204 211 219 192 174 154 104 162 129 247 80 70 45 300 316 293 318 331 32 77 88 26 359 72 70 138 170 165 172 190 132 360 51 16 92 249 278 275 208 165 160 156 148 135 127 124 127 139 141 140 134 120
284 278 311 274 228 224 100 219 266 245 261 283 258 259 246 252 267 279 258 262 254 287 281 278 282 184 264 273 259 262 172 338 228 204 245 205 271 297 77 168 145 150 104 207 126 234 88 311 117 38 4 341 344 350 2 343 44 84 278 304 352 98 86 118 91 37 76 240 154 121 196 253 268 260 52 96 110 119 125 131 132 134 150 148 148 149 144 134
280 243 238 293 262 187 202 193 189 246 261 278 292 286 280 252 226 237 248 264 262 248 264 258 247 326 310 311 282 260 237 174 275 237 162 121 96 65 29 17 102 104 105 163 126 136 85 179 95 131 159 217 280 16 309 333 270 287 333 348 40 98 24 7 295 24 71 279 106 116 233 255 272 142 116 112 114 113 133 145 156 151 157 156 155 156 148 140
1 8 295 331 350 224 286 331 341 300 300 311 315 287 274 285 305 297 283 267 245 262 234 230 267 318 297 345 316 296 310 187 204 253 60 155 188 45 275 72 52 62 121 127 127 80 135 119 103 149 147 175 203 214 243 130 360 353 306 332 311 42 84 90 103 78 174 221 71 226 170 178 191 178 139 148 134 134 147 151 149 146 144 157 168 169 170 180
330 79 340 339 325 349 312 336 6 355 286 303 286 284 307 313 308 297 301 294 304 311 308 284 285 342 301 324 301 304 300 342 309 19 41 70 359 149 149 97 83 89 97 85 102 81 70 77 166 130 166 187 188 202 241 207 105 250 345 315 328 358 94 111 169 239 185 82 325 261 170 144 209 183 162 161 166 147 153 152 145 152 172 178 184 181 190 194
34 291 45 50 259 275 356 331 345 318 310 315 274 281 293 313 314 307 312 298 317 337 359 319 302 266 266 258 309 302 334 328 313 193 199 112 105 30 63 8 99 202 95 36 22 111 136 123 248 144 322 52 169 162 43 45 100 197 293 304 316 314 340 346 226 183 142 163 204 222 151 166 208 201 184 176 172 160 154 160 173 175 170 163 163 178 185 199
335 335 317 9 4 297 282 271 294 295 302 307 283 282 298 294 302 301 317 314 321 323 28 301 295 304 301 302 316 260 338 20 334 307 177 206 154 117 69 360 347 29 96 67 37 69 86 131 200 108 99 8 2 10 5 5 336 340 326 310 296 300 289 247 250 173 176 174 185 145 153 168 204 195 179 174 168 144 158 150 123 137 166 176 171 180 193 204
34 4 333 345 268 293 290 304 312 320 309 315 322 294 298 295 302 342 344 344 329 312 335 321 321 324 322 317 306 292 240 216 206 246 230 157 70 79 162 171 190 337 63 93 111 350 103 266 185 86 73 335 315 6 5 1 3 334 325 314 305 284 316 316 180 313 53 65 96 104 100 90 284 155 152 153 121 94 98 135 164 172 163 169 181 192 204 210
319 298 323 320 329 300 320 339 336 318 307 312 318 311 321 346 340 330 310 262 277 316 338 323 322 320 307 314 329 316 283 304 342 257 180 157 164 206 118 296 128 130 69 58 51 5 72 231 48 78 76 320 335 1 348 23 25 21 332 332 357 50 39 340 51 263 117 138 119 111 112 171 233 228 70 102 130 138 155 169 169 187 186 179 187 204 214 222
301 285 316 237 262 301 337 322 310 328 310 299 335 330 325 321 312 327 320 281 306 316 310 322 312 328 333 350 316 306 306 315 306 328 255 188 154 167 130 165 133 146 164 98 330 130 150 123 111 96 75 266 262 100 57 31 23 358 322 258 140 61 129 139 66 57 104 129 110 134 194 201 185 146 130 163 150 162 161 173 181 193 191 187 198 212 221 225